loading
|
Showing default

YAOGAN-43 02C, 60947

Orbit data source: Space-Track

YAOGAN-43 02C, 60947 is a payload satellite owned by PLA GAD (CN) in LEO that was launched on Tue, 03 Sep 2024 UTC via a CHANG ZHENG 4B launch vehicle from the Xichang Space Center, China (XSC). Payloads include a variety of satellites, spacecraft, and rockets equipped with specific instruments for various scientific and technological missions. These include communications satellites like Starlink; space stations such as the ISS; scientific satellites like the Hubble; Earth observation satellites from companies like Planet Labs, Umbra, and HawkEye 360; GPS; miniature CubeSats for education and research; and military/defense satellites.

Loading next visibility...
Loading greatness...
YAOGAN-43 02C details
Identifier
60947, 2024-156C
Orbit
LEO
Last TLE update12 hours ago
Origin
Flag of CNPLA GAD (CN / PRC)
ManufacturerSAST
Mission statusOperational
MissionUnknown
Bus & MotorUnknown
Mass~300 kg wet, ~300 kg dry
Launch date (UTC)
2024-09-03 (2 weeks ago)
Launch vehicle
CHANG ZHENG 4B
Launch site
Xichang Space Center, China (XSC)
Object type
Payload
Rocket body
Debris
Radar Cross SectionLarge (>1 m²)

Expand to show TLE details & history

TLE from 12 hours ago
0 YAOGAN-43 02C
1 60947U 24156C   24258.76542220  .00124893  00000-0  48492-2 0  9999
2 60947  34.9996 266.0927 0008557   9.6591 350.4288 15.24651682  1747
Epoch: 2024-09-14T18:22Z
Definitive object data (Epoch: 2024-09-14T18:22:12.478Z)
Latitude0.00002°
Longitude-3.6777°
Altitude484.943 km
Speed7.628 km/s
True Right ascension17h 44m 22s
True Declination0° 00' 00"
Sunlit
Object was in daylight at TLE epoch
Predictive object data (real-time)
Latitude-12.59649°
Longitude-25.45959°
Altitude488.122 km
Speed7.625 km/s
Apparent Right ascension14h 18m 59s
Apparent Declination-30° 29' 03"
Sunlit
Object is in daylight
Predictive observer data (real-time)
Local Sidereal Time23:29:09
Azimuth271.858° WNW
Elevation-54.406°
Doppler factor1
Orbital elements
Apogee500.966 km
Perigee489.203 km
Semi-major axis6,873.221 km
Eccentricity0.0008557
Inclination34.9996°
RAAN266.0927°
Arg. of periapsis9.6591°
True anomaly350.41248°
Mean anomaly350.4288°
Eccentric anomaly350.42064°
Mean motion3.80893 °/min
BSTAR0.0048492
Period94.51 mins
No data available

YAOGAN-43 02C Visibility forecast

Observer location: 39.9160978°, -105.1181434

YAOGAN-43 02C is not visible in the next 10 days
Span
Click to sort rows by Start time (UTC) header in descending order
Start Az.
Max El. time (UTC)
Max El. Az.
Max El.
End time (UTC)
End Az.